[[{"header":{"parameterUnit":"m.s-1","parameterCategory":1,"la1":30.2991,"la2":30.254,"lo1":-89.0895,"lo2":-89.0444,"dy":0.0017,"dx":0.0017,"nx":28,"ny":28,"refTime":"2025-12-31T03:00:00:Z","depth":0,"parameterNumber":2,"parameterNumberName":"U-component_of_WINDS"},"data":[0,0,0,0,0,0,0,0,0,0,0,0,0,0,0,0,0,0,0,0,0,0,0,0,0,0,0,0,0,0,0,0,0,0,0,0,0,0,0,0,0,0,0,0,0,0,0,0,0,0,0,0,0,0,0,0,0,0,4.6586,4.6588,0,4.6821,4.6824,4.6826,4.6807,4.6803,4.6799,4.6796,4.7038,4.7047,4.7057,0,0,0,0,0,0,0,0,0,0,0,0,0,4.6119,4.6128,4.6586,4.6589,4.6592,4.6821,4.6824,4.6827,4.6807,4.6803,4.6798,4.6794,4.7035,4.7046,4.7058,0,0,0,0,0,0,0,0,0,0,0,0,0,4.6335,4.6131,4.6585,4.6609,4.6614,4.682,4.6824,4.6828,4.6808,4.6803,4.6797,4.6792,4.7031,4.7045,4.7059,4.7257,0,0,4.7104,4.7111,0,0,0,0,0,0,0,0,4.6323,4.6352,4.6603,4.6608,4.6613,4.6779,4.6748,4.6972,4.6809,4.6734,4.6796,4.679,4.6956,4.6977,4.7032,4.7269,4.7279,4.7106,4.7114,4.7121,4.7125,0,0,0,0,0,0,0,4.6308,4.6342,4.6679,4.6606,4.6613,4.6608,4.6633,4.679,4.6872,4.6741,4.674,4.6768,4.6958,4.7018,4.7038,4.7282,4.7105,4.7118,4.7127,4.7133,4.769,4.7696,0,0,0,0,0,0,4.6287,4.633,4.6671,4.6686,4.6452,4.6621,4.6649,4.6731,4.6871,4.6887,4.6772,4.6766,4.6996,4.7021,4.7046,4.7285,4.7121,4.7134,4.7143,4.7684,4.7692,4.7698,0,0,0,0,0,0,4.6277,4.6318,4.6662,4.6508,4.6551,4.6635,4.6728,4.6739,4.6799,4.6895,4.6909,4.6819,4.6993,4.7026,4.7204,4.7293,4.7141,4.7154,4.7677,4.7687,4.7695,4.7765,0,0,0,0,0,0,4.6264,4.6315,4.6391,4.6509,4.6559,4.6816,4.6733,4.6747,4.6824,4.6818,4.6942,4.6957,4.6991,4.7183,4.7219,4.7311,4.7166,4.767,4.7682,4.7692,4.7755,4.7776,4.7793,0,0,0,0,0,4.6247,4.6402,4.6395,4.6436,4.6656,4.6821,4.685,4.6885,4.6832,4.6908,4.6969,4.6953,4.7278,4.7201,4.7242,4.7339,4.7664,4.7678,4.7691,4.7747,4.7772,4.7793,0,0,0,0,0,0,4.6292,4.6418,4.6411,4.6609,4.6704,4.6818,4.6916,4.691,4.7024,4.7014,4.7053,4.7081,4.726,4.7318,4.723,4.7537,4.7464,4.7486,4.7492,4.7517,4.7535,4.7517,4.7178,0,0,0,0,0,4.6324,4.6448,4.6551,4.6716,4.6764,4.6832,4.6905,4.6924,4.7025,4.7065,4.7139,4.7238,4.7362,4.7443,4.7563,4.7764,4.779,4.7851,4.787,4.7885,4.7903,4.8012,4.804,4.7743,4.7743,4.7742,0,0,4.6393,4.6477,4.6553,4.6727,4.6803,4.6929,4.6866,4.7003,4.7097,4.7086,4.7258,4.7317,4.7429,4.762,4.7707,4.7673,4.7991,4.7902,4.7914,4.7924,4.8029,4.8057,4.8082,4.7752,4.775,4.7749,0,0,4.6583,4.666,4.6804,4.6881,4.6997,4.7041,4.7076,4.719,4.7228,4.7402,4.7396,4.7508,4.7722,4.7801,4.787,4.8089,4.8078,4.8127,4.8224,4.833,4.8353,4.8374,4.845,4.8477,4.8145,4.8145,4.8146,0,4.6653,4.6844,4.6878,4.7016,4.7092,4.7088,4.7233,4.7307,4.7457,4.7509,4.7469,4.7735,4.7811,4.8019,4.8072,4.8129,4.8168,4.8112,4.8347,4.8369,4.8389,4.8462,4.849,4.815,4.815,4.8149,4.8149,0,4.6924,4.7056,4.7159,4.7302,4.739,4.7531,4.7586,4.7671,4.7682,4.773,4.7906,4.7997,4.8134,4.8185,4.8198,4.8395,4.837,4.8339,4.8265,4.8421,4.849,4.8519,4.8158,4.8156,4.8154,4.8153,0,0,4.7148,4.7308,4.7344,4.7408,4.7536,4.7639,4.7779,4.7912,4.7983,4.8087,4.8205,4.8385,4.8356,4.8434,4.8456,4.8549,4.8714,4.8506,4.8509,4.8539,4.8934,4.8955,4.8987,4.8708,4.8713,4.8718,4.8923,0,4.7348,4.7596,4.7631,4.7851,4.7972,4.7969,4.8091,4.8183,4.8231,4.8341,4.8395,4.8521,4.8475,4.8521,4.8614,4.8674,4.8793,4.866,4.8816,4.8822,4.8786,4.9023,4.9047,4.9236,4.8951,4.8956,4.8959,0,4.7616,4.7725,4.7956,4.8065,4.8117,4.8226,4.835,4.8456,4.8559,4.8588,4.8674,4.8684,4.8829,4.8751,4.895,4.8859,4.8925,4.8965,4.8973,4.8987,4.8898,4.9042,4.9298,4.9326,4.9002,4.8999,4.8996,0,4.7752,4.7958,4.8122,4.8177,4.8309,4.8386,4.8444,4.8542,4.8619,4.8728,4.8778,4.8903,4.8971,4.9067,4.911,4.905,4.9306,4.9232,4.9333,4.9332,4.9385,4.9381,4.9654,4.9432,4.9432,4.9431,4.943,0,4.7972,4.8113,4.8185,4.8286,4.8443,4.8482,4.8637,4.8693,4.878,4.8891,4.8897,4.9001,4.9053,4.9165,4.92,4.9358,4.939,4.9416,4.9423,4.9414,4.9411,4.9457,4.9444,4.9439,4.9437,4.9435,4.9434,0,4.8151,4.8205,4.8383,4.8493,4.8524,4.8635,4.8729,4.8827,4.8874,4.9015,4.905,4.9125,4.9257,4.931,4.9472,4.9495,4.9677,4.9675,4.9642,4.9643,4.974,4.9729,5.005,5.0093,4.9845,4.9847,4.9849,0,4.8286,4.8394,4.8515,4.859,4.8651,4.8771,4.8849,4.8892,4.8973,4.9098,4.918,4.9312,4.9419,4.963,4.9699,4.9822,4.9822,4.9926,4.9841,4.9828,4.9821,4.9813,4.9823,4.9941,4.9944,4.9946,4.9947,0,4.852,4.8541,4.8654,4.8776,4.8869,4.8967,4.9063,4.9124,4.9181,4.9272,4.9406,4.949,4.9654,4.9784,4.9911,4.9971,4.9969,4.9974,5.0003,4.9994,4.9969,4.9982,4.9682,4.9966,4.9964,4.9963,4.9962,4.9961,4.868,4.8775,4.8875,4.8999,4.9076,4.9165,4.9261,4.932,4.9433,4.9569,4.9588,4.9731,4.983,5.0001,5.0066,5.0179,5.0152,5.0195,5.0205,5.0215,5.022,4.9953,5.0202,5.0202,5.0202,5.0201,5.0201,0,4.8912,4.8976,4.909,4.9223,4.9321,4.931,4.9415,4.9497,4.9623,4.9716,4.9821,4.9975,5.0101,5.0179,5.0305,5.038,5.0382,5.0412,5.0406,5.0419,5.0238,5.0199,5.0408,5.0408,5.0408,5.0408,5.0408,5.0408,4.9044,4.9204,4.9236,4.9433,4.9496,4.9636,4.9696,4.9778,4.9852,5.0023,5.0127,5.0177,5.0264,5.0396,5.0511,5.0531,5.0576,5.0608,5.0625,5.0454,5.0432,5.0412,5.0375,5.0618,5.0618,5.0796,5.0798,5.0799]},{"header":{"parameterUnit":"m.s-1","parameterCategory":1,"la1":30.2991,"la2":30.254,"lo1":-89.0895,"lo2":-89.0444,"dy":0.0017,"dx":0.0017,"nx":28,"ny":28,"refTime":"2025-12-31T03:00:00:Z","depth":0,"parameterNumber":3,"parameterNumberName":"V-component_of_WINDS"},"data":[0,0,0,0,0,0,0,0,0,0,0,0,0,0,0,0,0,0,0,0,0,0,0,0,0,0,0,0,0,0,0,0,0,0,0,0,0,0,0,0,0,0,0,0,0,0,0,0,0,0,0,0,0,0,0,0,0,0,0.8414,0.8413,0,0.8379,0.8378,0.8378,0.8334,0.8333,0.8333,0.8332,0.8296,0.8296,0.8296,0,0,0,0,0,0,0,0,0,0,0,0,0,0.8441,0.8441,0.8414,0.8413,0.8413,0.8379,0.8378,0.8378,0.8334,0.8333,0.8332,0.8332,0.8296,0.8296,0.8296,0,0,0,0,0,0,0,0,0,0,0,0,0,0.842,0.8441,0.8414,0.8387,0.8384,0.8379,0.8378,0.8378,0.8334,0.8333,0.8332,0.8331,0.8296,0.8296,0.8296,0.8314,0,0,0.8294,0.8294,0,0,0,0,0,0,0,0,0.8421,0.8419,0.8391,0.8389,0.8386,0.836,0.8375,0.8356,0.8335,0.8353,0.8332,0.8331,0.8318,0.8316,0.8312,0.8312,0.8311,0.8294,0.8294,0.8294,0.8294,0,0,0,0,0,0,0,0.8423,0.842,0.84,0.8391,0.8388,0.8376,0.8372,0.8371,0.8342,0.8352,0.8348,0.8345,0.8316,0.8312,0.8311,0.831,0.8294,0.8294,0.8294,0.8293,0.8322,0.8323,0,0,0,0,0,0,0.8429,0.8422,0.8401,0.8399,0.8401,0.8377,0.8372,0.8369,0.8342,0.8337,0.8346,0.8343,0.8313,0.8311,0.8309,0.8328,0.8294,0.8293,0.8293,0.8321,0.8322,0.8323,0,0,0,0,0,0,0.8429,0.8427,0.8402,0.8409,0.8405,0.8377,0.8374,0.8369,0.8365,0.8337,0.8332,0.8347,0.8313,0.831,0.8313,0.8326,0.8293,0.8293,0.832,0.8321,0.8323,0.8366,0,0,0,0,0,0,0.843,0.8428,0.8435,0.841,0.8405,0.8407,0.8375,0.8369,0.8364,0.836,0.8337,0.8332,0.8312,0.8314,0.8312,0.8325,0.8292,0.8318,0.832,0.8322,0.8363,0.8369,0.8374,0,0,0,0,0,0.8431,0.8449,0.8436,0.8433,0.8414,0.8408,0.8405,0.8381,0.8365,0.8372,0.8354,0.8333,0.8325,0.8314,0.8312,0.8325,0.8318,0.832,0.8322,0.8361,0.8368,0.8374,0,0,0,0,0,0,0.8477,0.8445,0.843,0.844,0.8427,0.8401,0.8409,0.8389,0.8381,0.8377,0.8347,0.8342,0.8349,0.8337,0.8326,0.834,0.8318,0.832,0.8348,0.8354,0.8359,0.8362,0.8292,0,0,0,0,0,0.8488,0.8486,0.8459,0.847,0.8464,0.8437,0.8434,0.8416,0.8402,0.8396,0.8378,0.8365,0.8359,0.8356,0.8349,0.8361,0.8355,0.8368,0.8374,0.8378,0.838,0.8384,0.839,0.8331,0.8331,0.8331,0,0,0.8511,0.8493,0.8494,0.8479,0.8466,0.8465,0.8433,0.8433,0.8431,0.8396,0.8398,0.8384,0.8367,0.8374,0.8376,0.8364,0.8395,0.8381,0.8385,0.8385,0.8387,0.8393,0.8398,0.8332,0.8332,0.8332,0,0,0.8552,0.8539,0.8547,0.8535,0.8516,0.8498,0.85,0.8476,0.8465,0.8466,0.8439,0.8436,0.8427,0.8415,0.8408,0.8442,0.8422,0.8441,0.8468,0.8472,0.8477,0.8481,0.8492,0.8497,0.8443,0.8443,0.8443,0,0.8583,0.858,0.8553,0.8554,0.8547,0.8514,0.8521,0.8511,0.8491,0.8487,0.8474,0.846,0.8446,0.8449,0.8458,0.8453,0.8453,0.8444,0.8478,0.8482,0.8485,0.8496,0.85,0.8445,0.8445,0.8445,0.8445,0,0.8619,0.8617,0.8625,0.8606,0.86,0.8604,0.8577,0.8574,0.8556,0.8539,0.8539,0.8521,0.8509,0.8508,0.8491,0.8509,0.8502,0.8484,0.8461,0.8494,0.8503,0.8507,0.8449,0.8448,0.8447,0.8447,0,0,0.869,0.8654,0.8658,0.8648,0.8624,0.8622,0.8623,0.8611,0.8609,0.8596,0.8596,0.8588,0.857,0.8562,0.8543,0.8547,0.8574,0.8528,0.8527,0.8537,0.8591,0.8605,0.861,0.856,0.8561,0.8561,0.8592,0,0.8726,0.8728,0.8702,0.8711,0.8708,0.8675,0.8676,0.8661,0.8645,0.8639,0.8621,0.8615,0.8593,0.8587,0.8589,0.857,0.8584,0.8568,0.8559,0.8559,0.8565,0.8615,0.863,0.866,0.8596,0.8596,0.8597,0,0.877,0.8759,0.8767,0.8741,0.8738,0.874,0.8726,0.8721,0.8703,0.8691,0.8681,0.8658,0.8657,0.8634,0.8632,0.8621,0.8616,0.8605,0.8606,0.8605,0.8581,0.8615,0.8669,0.8674,0.8602,0.8602,0.8601,0,0.882,0.8807,0.8809,0.8802,0.8772,0.8774,0.8761,0.8742,0.8736,0.8723,0.8718,0.8706,0.8699,0.869,0.8664,0.865,0.8664,0.864,0.8653,0.8654,0.8658,0.8658,0.8713,0.8655,0.8655,0.8655,0.8654,0,0.8864,0.887,0.8831,0.8833,0.8838,0.8808,0.8814,0.8798,0.878,0.8778,0.8748,0.8746,0.8713,0.8706,0.8686,0.8686,0.8684,0.8673,0.8667,0.8676,0.8677,0.8672,0.867,0.8656,0.8655,0.8655,0.8655,0,0.8922,0.8896,0.8897,0.8867,0.886,0.8865,0.884,0.884,0.882,0.8817,0.8815,0.8785,0.8776,0.8749,0.8733,0.8719,0.8725,0.8715,0.8732,0.8728,0.8743,0.8742,0.8796,0.8801,0.8741,0.8741,0.8742,0,0.8952,0.8956,0.8926,0.8922,0.8911,0.8905,0.8898,0.8868,0.8862,0.884,0.8842,0.883,0.882,0.8806,0.8783,0.877,0.8759,0.8779,0.8757,0.8765,0.8759,0.8759,0.8759,0.8784,0.8785,0.8786,0.8786,0,0.9008,0.8994,0.8985,0.8972,0.8964,0.8952,0.8938,0.8936,0.8902,0.8896,0.8887,0.8878,0.8861,0.885,0.8833,0.8819,0.8797,0.8793,0.8795,0.8804,0.8813,0.8808,0.8745,0.8792,0.8792,0.8791,0.8791,0.8791,0.9052,0.9053,0.9032,0.9023,0.9009,0.8996,0.8994,0.8974,0.8965,0.8949,0.8932,0.8923,0.8903,0.8878,0.8865,0.8858,0.8846,0.885,0.8851,0.8852,0.8855,0.8814,0.8855,0.8854,0.8854,0.8854,0.8854,0,0.9106,0.909,0.9082,0.9063,0.9055,0.9034,0.9017,0.9012,0.9005,0.8988,0.8977,0.8965,0.8953,0.8928,0.8913,0.8912,0.8901,0.8909,0.8909,0.8906,0.8867,0.8866,0.8918,0.8918,0.8918,0.8918,0.8918,0.8918,0.9133,0.9134,0.9117,0.911,0.9094,0.9086,0.9078,0.9065,0.9051,0.9039,0.9028,0.9012,0.8991,0.8974,0.8962,0.8954,0.895,0.8962,0.8951,0.8915,0.8909,0.8903,0.8902,0.8961,0.8961,0.899,0.8991,0.8991]}]]